#timestamp,LO_Frequency,Hit,StdDev 
1532707215.1,286047002.2,N
1532707216.0,286047002.2,N
1532707235.8,286047002.5,N
1532707255.6,286047000.6,N
1532707275.5,286047000.7,N
1532707295.3,286047000.8,N
1532707315.1,286046998.8,N
1532707335.9,286046998.9,N
1532707355.7,286046998.8,N
1532707375.6,286046996.9,N
1532707395.4,286046997.1,N
1532707415.2,286046997.8,N
1532707435.1,286046997.1,N
1532707436.0,286046997.1,N
1532707455.8,286046999.2,N
1532707475.7,286047005.8,Y
1532707495.9,286047010.7,P
1532707515.7,286047010.0,N
1532707535.5,286047006.3,N
1532707555.4,286047007.0,N
1532707575.2,286047007.6,N
1532707595.1,286047005.1,N
1532707596.0,286047005.1,N
1532707615.8,286047004.9,N
1532707635.6,286047005.6,N
1532707655.5,286047008.9,Y
1532707675.3,286047004.1,P
1532707695.1,286047002.1,N
1532707715.9,286047002.1,N
1532707735.7,286047002.1,N
1532707755.6,286047002.2,N
1532707775.4,286047002.3,N
1532707795.2,286047002.8,N
1532707815.1,286047000.2,N
1532707816.0,286047000.2,N
1532707835.8,286047000.6,N
1532707855.6,286047001.1,N
1532707875.5,286047000.7,N
1532707895.3,286046998.1,N
1532707915.2,286046998.7,N
1532707935.9,286046999.1,N
1532707955.7,286046998.7,N
1532707975.6,286046999.5,N
1532707995.4,286046997.3,N
1532708015.3,286046996.5,N
1532708035.1,286046997.2,N
1532708036.0,286046997.2,N
1532708055.8,286046997.1,N
1532708075.7,286046997.3,N
1532708095.5,286046995.3,N
1532708115.3,286046996.1,N
1532708135.2,286046995.1,N
1532708155.0,286046993.7,N
1532708155.9,286046993.7,N
1532708175.8,286046995.8,N
1532708195.6,286046994.9,N
1532708215.4,286046995.8,N
1532708235.3,286046995.9,N
1532708255.1,286046996.0,N
1532708275.8,286046995.9,N
1532708295.7,286046993.7,N
1532708315.5,286046993.5,N
1532708335.4,286046993.7,N
1532708355.2,286046994.5,N
1532708375.0,286046993.5,N
1532708375.9,286046993.5,N
1532708395.8,286046994.4,N
1532708415.6,286046991.9,Y
1532708435.4,286046997.1,P
1532708455.3,286046997.4,P
1532708475.1,286046997.4,P
1532708495.9,286046997.3,Y
1532708515.7,286047001.1,P
1532708535.5,286046998.1,N
1532708555.4,286047001.2,N
1532708575.2,286046998.5,N
1532708595.0,286046998.6,N
1532708595.9,286046998.6,N
1532708615.8,286047001.2,N
1532708635.6,286046998.9,N
1532708655.5,286047000.8,N
1532708675.3,286047000.6,N
1532708695.1,286046998.9,N
1532708715.9,286046998.3,N
1532708735.7,286047000.8,N
1532708755.5,286046999.9,N
1532708775.4,286047000.6,N
1532708795.2,286046998.5,N
1532708815.1,286046998.5,N
1532708816.0,286046998.5,N
1532708835.8,286046998.3,N
1532708855.6,286046998.1,N
1532708875.5,286046999.1,N
1532708895.3,286046998.4,N
1532708915.1,286046998.8,N
1532708935.9,286046998.4,N
1532708955.7,286046998.7,N
1532708975.6,286046998.8,N
1532708995.4,286046999.3,N
1532709015.2,286046998.8,N
1532709035.1,286047000.8,N
1532709036.0,286047000.8,N
1532709055.8,286047001.1,N
1532709075.6,286046998.8,N
1532709095.5,286046998.3,N
1532709115.3,286046998.8,N
1532709135.2,286046998.8,N
1532709155.9,286046998.4,N
1532709175.7,286047000.8,N
1532709195.6,286046998.3,N
1532709215.4,286046998.7,N
1532709235.2,286046999.2,N
1532709255.1,286047000.9,N
1532709256.0,286047000.9,N
1532709275.8,286047000.6,N
1532709295.7,286047000.9,N
1532709315.5,286047000.7,N
1532709335.3,286046998.8,N
1532709355.2,286046998.3,N
1532709375.0,286046996.9,Y
1532709375.9,286046996.9,P
1532709395.7,286046998.3,N
1532709415.6,286046998.2,N
1532709435.4,286046998.9,N
1532709455.3,286046998.9,N
1532709475.1,286046999.2,N
1532709476.0,286046999.2,N
1532709495.8,286046998.8,N
1532709515.7,286046998.5,N
1532709535.5,286046998.9,N
1532709555.4,286046999.4,N
1532709575.2,286046999.5,N
1532709595.0,286046997.4,Y
1532709595.9,286046997.4,P
1532709615.8,286046998.4,N
1532709635.6,286047000.5,N
1532709655.5,286046999.7,N
1532709675.3,286047002.4,N
1532709695.1,286047002.7,N
1532709715.9,286046999.7,N
1532709735.7,286046999.7,N
1532709755.5,286047000.1,N
1532709775.4,286047000.4,N
1532709795.2,286046998.5,N
1532709815.0,286047000.6,N
1532709816.0,286047000.6,N
1532709835.8,286047000.8,N
1532709855.6,286047000.2,N
1532709875.5,286046999.7,N
1532709895.3,286047001.2,N
1532709915.1,286047000.8,N
1532709935.9,286046998.1,N
1532709955.7,286047000.9,N
1532709975.7,286046998.3,N
1532709995.6,286046999.3,N
1532710015.4,286047001.2,N
1532710035.3,286046998.6,N
1532710055.1,286046998.9,N
1532710056.0,286046998.9,N
1532710075.8,286047000.8,N
1532710095.7,286046998.7,N
1532710115.5,286046999.1,N
1532710135.4,286046996.8,N
1532710155.2,286046996.6,N
1532710175.0,286046997.3,N
1532710175.9,286046997.3,N
1532710195.8,286046997.8,N
1532710215.6,286046997.6,N
1532710235.5,286046997.4,N
1532710255.3,286046998.0,N
1532710275.1,286046995.3,Y
1532710295.9,286046994.9,P
1532710315.7,286046997.5,N
1532710335.6,286046997.1,N
1532710355.4,286046997.8,N
1532710375.2,286046997.0,N
1532710395.1,286046997.7,N
1532710396.0,286046997.7,N
1532710415.8,286046994.9,Y
1532710435.6,286046996.6,P
1532710455.5,286046996.5,P
1532710475.3,286046998.5,P
1532710495.2,286046999.0,N
1532710515.9,286046997.0,Y
1532710535.7,286046998.5,P
1532710555.6,286046998.2,P
1532710575.4,286046998.1,P
1532710595.3,286047000.4,N
1532710615.1,286047000.3,N
1532710616.0,286047000.3,N
1532710635.8,286047000.4,N
1532710655.7,286047000.6,N
1532710675.5,286047000.4,N
1532710695.3,286047000.6,N
1532710715.2,286047000.4,N
1532710735.0,286047000.9,N
1532710735.9,286047000.9,N
1532710755.8,286047000.9,N
1532710775.6,286047000.7,N
1532710795.4,286047000.2,N
